BAW81 EGLL-DGAA

Flight info

Callsign BAW81
Flight time N/A
Altitude 35000
Route MODMI M185 MID L151 SITET UN859 SOPIL DCT BALAN DCT EVPOK DCT NARAK DCT GAI DCT LOMRA DCT ROCAN DCT PUMAL DCT XEPLA DCT BCN DCT GARBI DCT LARPA DCT TOLSO DCT LISAS DCT MJV N859 MOGIL UB31 ZEM/N0488F360 UZ333 KAHIL UB726 GHA/N0485F370 UA615 TMS UA604 EREBO/N0495F360 DCT MIGNI/N0492F380 DCT ABALA DCT IPUTA DCT TATAT DCT KILMO DCT LITEX LITEX1B
Aircraft A35K/H-SDE2E3GHIJ3J4J5LM1ORWXY/LB1D1

Departure

Time 2026-05-06 11:22
Airport London Heathrow Airport (EGLL)

Arrival

Time N/A
Airport Kotoka International Airport (DGAA)
Time Latitude Longitude Altitude Speed Heading
2026-05-06 10:44 51.47316 -0.47730 92 ft 0 kts 89°
2026-05-06 11:08 51.47315 -0.47756 96 ft 2 kts 89°
2026-05-06 11:08 51.47315 -0.47791 93 ft 3 kts 89°
2026-05-06 11:09 51.47316 -0.47821 93 ft 2 kts 107°
2026-05-06 11:09 51.47317 -0.47827 92 ft 1 kts 114°
2026-05-06 11:09 51.47328 -0.47853 92 ft 3 kts 143°
2026-05-06 11:09 51.47347 -0.47869 92 ft 3 kts 168°
2026-05-06 11:10 51.47371 -0.47872 93 ft 4 kts 180°
2026-05-06 11:10 51.47385 -0.47872 92 ft 2 kts 180°
2026-05-06 11:10 51.47387 -0.47872 91 ft 0 kts 180°
2026-05-06 11:14 51.47381 -0.47872 91 ft 2 kts 180°
2026-05-06 11:14 51.47359 -0.47872 91 ft 4 kts 180°
2026-05-06 11:14 51.47323 -0.47872 92 ft 6 kts 180°
2026-05-06 11:14 51.47272 -0.47872 95 ft 8 kts 180°
2026-05-06 11:15 51.47206 -0.47872 93 ft 11 kts 180°
2026-05-06 11:15 51.47125 -0.47871 92 ft 13 kts 180°
2026-05-06 11:15 51.47031 -0.47871 92 ft 15 kts 180°
2026-05-06 11:15 51.46961 -0.47871 95 ft 15 kts 180°
2026-05-06 11:16 51.46905 -0.47870 95 ft 5 kts 180°
2026-05-06 11:16 51.46866 -0.47870 92 ft 7 kts 180°
2026-05-06 11:16 51.46812 -0.47870 92 ft 9 kts 180°
2026-05-06 11:16 51.46757 -0.47907 96 ft 9 kts 234°
2026-05-06 11:17 51.46745 -0.48016 93 ft 11 kts 267°
2026-05-06 11:17 51.46743 -0.48057 93 ft 3 kts 267°
2026-05-06 11:17 51.46743 -0.48102 94 ft 5 kts 269°
2026-05-06 11:17 51.46742 -0.48170 93 ft 7 kts 269°
2026-05-06 11:18 51.46742 -0.48262 92 ft 9 kts 269°
2026-05-06 11:18 51.46741 -0.48377 92 ft 11 kts 269°
2026-05-06 11:18 51.46741 -0.48515 94 ft 13 kts 270°
2026-05-06 11:18 51.46741 -0.48667 92 ft 12 kts 266°
2026-05-06 11:19 51.46692 -0.48739 97 ft 10 kts 188°
2026-05-06 11:19 51.46652 -0.48746 95 ft 0 kts 190°
2026-05-06 11:19 51.46651 -0.48747 95 ft 1 kts 190°
2026-05-06 11:19 51.46617 -0.48762 95 ft 10 kts 196°
2026-05-06 11:20 51.46544 -0.48782 95 ft 11 kts 175°
2026-05-06 11:20 51.46486 -0.48705 97 ft 12 kts 108°
2026-05-06 11:20 51.46481 -0.48617 95 ft 0 kts 91°
2026-05-06 11:20 51.46481 -0.48608 94 ft 2 kts 91°
2026-05-06 11:21 51.46480 -0.48577 92 ft 4 kts 91°
2026-05-06 11:21 51.46480 -0.48526 92 ft 5 kts 91°
2026-05-06 11:21 51.46478 -0.48280 94 ft 53 kts 89°
2026-05-06 11:21 51.46483 -0.47301 97 ft 120 kts 89°
2026-05-06 11:22 51.46488 -0.45653 120 ft 172 kts 91°
2026-05-06 11:22 51.46461 -0.43655 693 ft 181 kts 88°
2026-05-06 11:22 51.46211 -0.41681 1522 ft 186 kts 107°
2026-05-06 11:22 51.45610 -0.39751 1833 ft 210 kts 122°
2026-05-06 11:23 51.44379 -0.38271 1998 ft 238 kts 155°
2026-05-06 11:23 51.42741 -0.37326 2305 ft 259 kts 161°
2026-05-06 11:23 51.40985 -0.36480 2917 ft 267 kts 166°
2026-05-06 11:23 51.39128 -0.36384 3566 ft 273 kts 194°
2026-05-06 11:24 51.37351 -0.37477 4245 ft 275 kts 208°
2026-05-06 11:24 51.35627 -0.38858 4952 ft 279 kts 209°
2026-05-06 11:24 51.33877 -0.40258 5595 ft 282 kts 209°
2026-05-06 11:24 51.32116 -0.41643 5923 ft 281 kts 209°
2026-05-06 11:25 51.30364 -0.43025 5988 ft 281 kts 210°
2026-05-06 11:25 51.28612 -0.44410 5984 ft 281 kts 210°
2026-05-06 11:25 51.26859 -0.45795 5988 ft 281 kts 210°
2026-05-06 11:25 51.25110 -0.47197 5988 ft 281 kts 210°
2026-05-06 11:26 51.23361 -0.48599 5987 ft 281 kts 210°
2026-05-06 11:26 51.21613 -0.49988 6118 ft 282 kts 210°
2026-05-06 11:26 51.19845 -0.51366 6668 ft 282 kts 209°
2026-05-06 11:26 51.18076 -0.52734 7461 ft 283 kts 208°
2026-05-06 11:27 51.16320 -0.54087 8165 ft 285 kts 208°
2026-05-06 11:27 51.14525 -0.55470 8831 ft 288 kts 208°
2026-05-06 11:27 51.12702 -0.56874 9512 ft 293 kts 208°
2026-05-06 11:27 51.10860 -0.58295 10176 ft 296 kts 207°
2026-05-06 11:28 51.08944 -0.59714 10506 ft 312 kts 204°
2026-05-06 11:28 51.06814 -0.60755 10763 ft 330 kts 193°
2026-05-06 11:28 51.04470 -0.61050 10964 ft 348 kts 178°
2026-05-06 11:28 51.02034 -0.60355 11195 ft 364 kts 164°
2026-05-06 11:29 50.99581 -0.59043 11421 ft 379 kts 159°
2026-05-06 11:29 50.97103 -0.57426 11757 ft 388 kts 157°
2026-05-06 11:29 50.94639 -0.55694 12437 ft 387 kts 156°
2026-05-06 11:29 50.92176 -0.53948 13041 ft 388 kts 156°
2026-05-06 11:30 50.89681 -0.52208 13511 ft 394 kts 157°
2026-05-06 11:30 50.87145 -0.50480 13919 ft 399 kts 158°
2026-05-06 11:30 50.84618 -0.48793 14498 ft 397 kts 158°
2026-05-06 11:30 50.82079 -0.47119 15099 ft 397 kts 158°
2026-05-06 11:31 50.79516 -0.45440 15524 ft 401 kts 159°
2026-05-06 11:31 50.76916 -0.43744 15928 ft 406 kts 158°
2026-05-06 11:31 50.74316 -0.42049 16442 ft 408 kts 159°
2026-05-06 11:31 50.71666 -0.40324 16881 ft 411 kts 158°
2026-05-06 11:32 50.69021 -0.38603 17485 ft 410 kts 158°
2026-05-06 11:32 50.66368 -0.36874 17892 ft 416 kts 159°
2026-05-06 11:32 50.63682 -0.35130 18373 ft 417 kts 159°
2026-05-06 11:32 50.60996 -0.33384 18801 ft 419 kts 159°
2026-05-06 11:33 50.58296 -0.31632 19195 ft 422 kts 159°
2026-05-06 11:33 50.55582 -0.29874 19678 ft 422 kts 159°
2026-05-06 11:33 50.52854 -0.28107 20079 ft 425 kts 159°
2026-05-06 11:33 50.50109 -0.26332 20505 ft 427 kts 159°
2026-05-06 11:34 50.47354 -0.24554 20952 ft 428 kts 159°
2026-05-06 11:34 50.44628 -0.22797 21384 ft 430 kts 159°
2026-05-06 11:34 50.41844 -0.21002 21789 ft 433 kts 159°
2026-05-06 11:34 50.39045 -0.19201 22206 ft 435 kts 159°
2026-05-06 11:35 50.36232 -0.17395 22659 ft 437 kts 159°
2026-05-06 11:35 50.33405 -0.15582 23103 ft 439 kts 159°
2026-05-06 11:35 50.30606 -0.13788 23518 ft 441 kts 159°
2026-05-06 11:35 50.27761 -0.11968 23867 ft 443 kts 159°
2026-05-06 11:36 50.24897 -0.10139 24216 ft 446 kts 159°
2026-05-06 11:36 50.22014 -0.08300 24569 ft 448 kts 159°
2026-05-06 11:36 50.19126 -0.06444 24911 ft 450 kts 159°
2026-05-06 11:36 50.16251 -0.04498 25268 ft 452 kts 157°
2026-05-06 11:37 50.13374 -0.02478 25626 ft 455 kts 157°
2026-05-06 11:37 50.10443 -0.00547 25970 ft 456 kts 161°
2026-05-06 11:37 50.07405 0.00947 26282 ft 459 kts 165°
2026-05-06 11:37 50.04312 0.02291 26646 ft 461 kts 166°
2026-05-06 11:38 50.01194 0.03556 26999 ft 463 kts 167°
2026-05-06 11:38 49.98063 0.04779 27384 ft 465 kts 167°
2026-05-06 11:38 49.94913 0.05991 27706 ft 468 kts 167°
2026-05-06 11:38 49.91778 0.07198 28016 ft 471 kts 166°
2026-05-06 11:39 49.88554 0.08447 28399 ft 473 kts 166°
2026-05-06 11:39 49.85351 0.09694 28715 ft 476 kts 166°
2026-05-06 11:39 49.82135 0.10949 29056 ft 478 kts 166°
2026-05-06 11:39 49.78899 0.12213 29362 ft 480 kts 166°
2026-05-06 11:40 49.75655 0.13478 29689 ft 482 kts 166°
2026-05-06 11:40 49.72429 0.14736 29940 ft 485 kts 166°
2026-05-06 11:40 49.69153 0.16012 30210 ft 487 kts 166°
2026-05-06 11:40 49.65852 0.17305 30409 ft 490 kts 165°
2026-05-06 11:41 49.62550 0.18628 30723 ft 490 kts 165°
2026-05-06 11:41 49.59249 0.19965 31091 ft 490 kts 165°
2026-05-06 11:41 49.55967 0.21296 31501 ft 488 kts 165°
2026-05-06 11:41 49.52684 0.22622 31989 ft 486 kts 165°
2026-05-06 11:42 49.49404 0.23941 32238 ft 488 kts 165°
2026-05-06 11:42 49.46119 0.25261 32537 ft 488 kts 165°
2026-05-06 11:42 49.42838 0.26576 32841 ft 487 kts 165°
2026-05-06 11:42 49.39551 0.27890 33125 ft 488 kts 165°
2026-05-06 11:43 49.36259 0.29205 33445 ft 487 kts 165°
2026-05-06 11:43 49.32988 0.30508 33849 ft 485 kts 165°
2026-05-06 11:43 49.29731 0.31807 34173 ft 483 kts 165°
2026-05-06 11:44 49.23233 0.34514 34589 ft 484 kts 164°
2026-05-06 11:44 49.19986 0.35901 34770 ft 484 kts 164°
2026-05-06 11:44 49.16779 0.37269 34927 ft 486 kts 164°
2026-05-06 11:44 49.13503 0.38660 34950 ft 491 kts 164°
2026-05-06 11:45 49.06905 0.41438 34952 ft 491 kts 164°
2026-05-06 11:45 49.00309 0.44194 34973 ft 491 kts 164°
2026-05-06 11:46 48.93711 0.46942 34953 ft 491 kts 164°
2026-05-06 11:46 48.87127 0.49679 34953 ft 490 kts 164°
2026-05-06 11:47 48.80534 0.52413 34947 ft 490 kts 164°
2026-05-06 11:47 48.73942 0.55099 34948 ft 491 kts 165°
2026-05-06 11:48 48.67318 0.57669 34954 ft 490 kts 165°
2026-05-06 11:48 48.60743 0.60212 34951 ft 491 kts 165°
2026-05-06 11:49 48.54117 0.62780 34952 ft 492 kts 165°
2026-05-06 11:49 48.47488 0.65402 34968 ft 491 kts 165°
2026-05-06 11:50 48.40901 0.68099 34956 ft 491 kts 164°
2026-05-06 11:50 48.34293 0.70801 34948 ft 492 kts 164°
2026-05-06 11:51 48.27689 0.73478 34951 ft 491 kts 165°
2026-05-06 11:51 48.21081 0.76137 34956 ft 491 kts 165°
2026-05-06 11:52 48.14516 0.78712 34952 ft 491 kts 165°
2026-05-06 11:52 48.07903 0.81290 34952 ft 490 kts 165°
2026-05-06 11:53 48.01293 0.83871 34952 ft 490 kts 165°
2026-05-06 11:53 47.94695 0.86448 34943 ft 489 kts 166°
2026-05-06 11:54 47.88115 0.89011 34947 ft 488 kts 166°
2026-05-06 11:54 47.81544 0.91566 34947 ft 488 kts 165°
2026-05-06 11:55 47.75012 0.94100 34946 ft 489 kts 165°
2026-05-06 11:55 47.68418 0.96642 34947 ft 489 kts 166°
2026-05-06 11:56 47.61813 0.99185 34943 ft 490 kts 165°
2026-05-06 11:56 47.55221 1.01718 34941 ft 490 kts 165°
2026-05-06 11:57 47.48619 1.04248 34941 ft 490 kts 165°
2026-05-06 11:57 47.41933 1.06199 34942 ft 490 kts 176°
2026-05-06 11:58 47.35162 1.06358 34935 ft 490 kts 180°
2026-05-06 11:58 47.28336 1.06174 34936 ft 491 kts 181°
2026-05-06 11:59 47.21500 1.05960 34936 ft 491 kts 181°
2026-05-06 11:59 47.14665 1.05779 34937 ft 491 kts 181°
2026-05-06 12:00 47.07822 1.05615 34931 ft 492 kts 181°
2026-05-06 12:00 47.00972 1.05458 34929 ft 492 kts 181°
2026-05-06 12:01 46.94126 1.05195 34925 ft 492 kts 182°
2026-05-06 12:01 46.88435 1.04922 34924 ft 492 kts 182°
2026-05-06 12:02 46.81590 1.04605 34921 ft 492 kts 182°
2026-05-06 12:02 46.74745 1.04307 34928 ft 492 kts 182°
2026-05-06 12:03 46.67890 1.04017 34913 ft 492 kts 182°
2026-05-06 12:03 46.61051 1.03729 34928 ft 492 kts 182°
2026-05-06 12:04 46.54251 1.03469 34912 ft 492 kts 180°
2026-05-06 12:04 46.47463 1.04701 34912 ft 493 kts 168°
2026-05-06 12:05 46.40763 1.06864 34913 ft 494 kts 167°
2026-05-06 12:05 46.34072 1.09152 34927 ft 494 kts 167°
2026-05-06 12:06 46.27367 1.11423 34915 ft 494 kts 167°
2026-05-06 12:06 46.20706 1.13643 34920 ft 494 kts 167°
2026-05-06 12:07 46.13998 1.15865 34901 ft 494 kts 168°
2026-05-06 12:07 46.07299 1.18079 34911 ft 494 kts 168°
2026-05-06 12:08 46.00603 1.20285 34913 ft 492 kts 168°
2026-05-06 12:08 45.93934 1.22476 34912 ft 492 kts 168°
2026-05-06 12:09 45.87249 1.24669 34909 ft 492 kts 168°
2026-05-06 12:09 45.80609 1.26841 34913 ft 492 kts 168°
2026-05-06 12:10 45.73930 1.29021 34908 ft 492 kts 168°
2026-05-06 12:10 45.67248 1.31197 34913 ft 492 kts 169°
2026-05-06 12:11 45.60567 1.33367 34914 ft 492 kts 168°
2026-05-06 12:11 45.53881 1.35534 34912 ft 492 kts 169°
2026-05-06 12:12 45.47189 1.37696 34920 ft 493 kts 169°
2026-05-06 12:12 45.40542 1.39839 34924 ft 493 kts 169°
2026-05-06 12:13 45.33852 1.41990 34924 ft 493 kts 169°
2026-05-06 12:13 45.27153 1.44139 34922 ft 493 kts 169°
2026-05-06 12:14 45.20445 1.46286 34918 ft 493 kts 169°
2026-05-06 12:14 45.13743 1.48428 34908 ft 494 kts 169°
2026-05-06 12:15 45.07050 1.50559 34910 ft 494 kts 169°
2026-05-06 12:15 45.00335 1.52693 34914 ft 494 kts 169°
2026-05-06 12:16 44.93643 1.54815 34938 ft 492 kts 170°
2026-05-06 12:16 44.86998 1.56918 34938 ft 492 kts 170°
2026-05-06 12:17 44.80311 1.59027 34942 ft 492 kts 170°
2026-05-06 12:17 44.73629 1.61128 34944 ft 492 kts 170°
2026-05-06 12:18 44.66952 1.63225 34947 ft 492 kts 170°
2026-05-06 12:18 44.60268 1.65319 34935 ft 492 kts 170°
2026-05-06 12:19 44.53590 1.67409 34949 ft 490 kts 170°
2026-05-06 12:19 44.46935 1.69483 34953 ft 489 kts 170°
2026-05-06 12:20 44.40299 1.71547 34937 ft 489 kts 171°
2026-05-06 12:20 44.33701 1.73594 34956 ft 487 kts 171°
2026-05-06 12:21 44.27080 1.75608 34954 ft 486 kts 172°
2026-05-06 12:21 44.20417 1.77111 34954 ft 485 kts 175°
2026-05-06 12:22 44.13743 1.78451 34961 ft 484 kts 175°
2026-05-06 12:22 44.07072 1.79854 34960 ft 484 kts 174°
2026-05-06 12:23 44.00400 1.81310 34959 ft 484 kts 175°
2026-05-06 12:23 43.93797 1.82753 34959 ft 482 kts 176°
2026-05-06 12:24 43.87137 1.83543 34963 ft 479 kts 181°
2026-05-06 12:24 43.80471 1.83991 34958 ft 479 kts 181°
2026-05-06 12:25 43.73810 1.84525 34963 ft 478 kts 180°
2026-05-06 12:25 43.67212 1.85141 34965 ft 478 kts 180°
2026-05-06 12:26 43.60571 1.85789 34950 ft 478 kts 180°
2026-05-06 12:26 43.53943 1.86435 34960 ft 477 kts 181°
2026-05-06 12:27 43.47326 1.87071 34953 ft 476 kts 181°
2026-05-06 12:27 43.40706 1.87705 34931 ft 476 kts 181°
2026-05-06 12:28 43.34133 1.88336 34954 ft 475 kts 181°
2026-05-06 12:28 43.27548 1.88971 34954 ft 474 kts 181°
2026-05-06 12:29 43.20946 1.89600 34936 ft 475 kts 181°
2026-05-06 12:29 43.14362 1.90225 34954 ft 474 kts 181°
2026-05-06 12:30 43.07779 1.90849 34954 ft 474 kts 181°
2026-05-06 12:30 43.01220 1.91471 34951 ft 471 kts 181°
2026-05-06 12:31 42.94744 1.92086 34952 ft 467 kts 181°
2026-05-06 12:31 42.88266 1.92701 34953 ft 466 kts 181°
2026-05-06 12:32 42.81791 1.93310 34951 ft 466 kts 181°
2026-05-06 12:32 42.75298 1.93919 34946 ft 466 kts 181°
2026-05-06 12:33 42.68821 1.94530 34947 ft 466 kts 181°
2026-05-06 12:33 42.62342 1.95374 34941 ft 470 kts 177°
2026-05-06 12:34 42.55875 1.96804 34934 ft 471 kts 176°
2026-05-06 12:34 42.49453 1.98243 34934 ft 470 kts 177°
2026-05-06 12:35 42.42995 1.99589 34930 ft 469 kts 177°